| time (UTC) | temp C | wind direction | speed KPH | gust KPH | rain 1hr cm | rain 24hr cm | rain mn cm | humidity % | barometer mb |
| 20260508075206 | 5 | 11 | 1.6 | 1.6 | 0.00 | 0.00 | 0.00 | 62 | 1026.6 |
| 20260508074703 | 5 | 19 | 3.2 | 4.8 | 0.00 | 0.00 | 0.00 | 62 | 1026.8 |
| 20260508074200 | 6 | 28 | 3.2 | 4.8 | 0.00 | 0.00 | 0.00 | 63 | 1026.7 |
| 20260508073657 | 6 | 17 | 3.2 | 4.8 | 0.00 | 0.00 | 0.00 | 62 | 1026.7 |
| 20260508073155 | 6 | 11 | 6.4 | 4.8 | 0.00 | 0.00 | 0.00 | 62 | 1027.1 |
| 20260508072650 | 6 | 14 | 4.8 | 4.8 | 0.00 | 0.00 | 0.00 | 62 | 1027.1 |
| 20260508072148 | 6 | 11 | 1.6 | 1.6 | 0.00 | 0.00 | 0.00 | 61 | 1027.1 |
| 20260508071645 | 6 | 12 | 3.2 | 3.2 | 0.00 | 0.00 | 0.00 | 60 | 1027.1 |
| 20260508071143 | 6 | 17 | 1.6 | 1.6 | 0.00 | 0.00 | 0.00 | 60 | 1027.5 |
| 20260508070640 | 6 | 11 | 1.6 | 3.2 | 0.00 | 0.00 | 0.00 | 59 | 1027.0 |
| 20260508070139 | 6 | 22 | 3.2 | 3.2 | 0.00 | 0.00 | 0.00 | 58 | 1027.1 |
| 20260508065636 | 6 | 9 | 0.0 | 0.0 | 0.00 | 0.00 | 0.00 | 58 | 1027.2 |
| 20260508065134 | 6 | 347 | 1.6 | 1.6 | 0.00 | 0.00 | 0.00 | 60 | 1027.2 |
| 20260508064631 | 6 | 319 | 0.0 | 0.0 | 0.00 | 0.00 | 0.00 | 60 | 1027.0 |
| 20260508064129 | 6 | 325 | 0.0 | 0.0 | 0.00 | 0.00 | 0.00 | 59 | 1026.8 |
| 20260508063626 | 6 | 325 | 0.0 | 0.0 | 0.00 | 0.00 | 0.00 | 59 | 1027.1 |
| 20260508063124 | 6 | 325 | 0.0 | 1.6 | 0.00 | 0.00 | 0.00 | 59 | 1027.0 |
| 20260508062621 | 6 | 325 | 0.0 | 0.0 | 0.00 | 0.00 | 0.00 | 59 | 1027.0 |
| 20260508062118 | 6 | 280 | 1.6 | 1.6 | 0.00 | 0.00 | 0.00 | 59 | 1027.2 |
| 20260508061615 | 6 | 335 | 0.0 | 0.0 | 0.00 | 0.00 | 0.00 | 60 | 1027.4 |
| 20260508061113 | 6 | 335 | 1.6 | 1.6 | 0.00 | 0.00 | 0.00 | 61 | 1027.2 |
| 20260508060609 | 6 | 335 | 0.0 | 0.0 | 0.00 | 0.00 | 0.00 | 62 | 1027.0 |
| 20260508060107 | 6 | 331 | 0.0 | 0.0 | 0.00 | 0.00 | 0.00 | 62 | 1027.0 |
| 20260508055602 | 6 | 22 | 0.0 | 0.0 | 0.00 | 0.00 | 0.00 | 63 | 1026.8 |
| 20260508055059 | 6 | 19 | 0.0 | 0.0 | 0.00 | 0.00 | 0.00 | 61 | 1027.0 |
| 20260508054556 | 6 | 19 | 0.0 | 0.0 | 0.00 | 0.00 | 0.00 | 64 | 1027.2 |
| 20260508054053 | 6 | 20 | 0.0 | 1.6 | 0.00 | 0.00 | 0.00 | 65 | 1027.0 |
| 20260508053549 | 6 | 15 | 0.0 | 0.0 | 0.00 | 0.00 | 0.00 | 63 | 1027.2 |
| 20260508053048 | 6 | 15 | 0.0 | 0.0 | 0.00 | 0.00 | 0.00 | 64 | 1027.0 |
| 20260508052545 | 6 | 17 | 0.0 | 0.0 | 0.00 | 0.00 | 0.00 | 63 | 1027.0 |
| 20260508052042 | 6 | 16 | 0.0 | 0.0 | 0.00 | 0.00 | 0.00 | 65 | 1026.8 |
| 20260508051538 | 6 | 5 | 1.6 | 1.6 | 0.00 | 0.00 | 0.00 | 64 | 1027.0 |
| 20260508051033 | 6 | 7 | 3.2 | 3.2 | 0.00 | 0.00 | 0.00 | 66 | 1027.0 |
| 20260508050530 | 5 | 357 | 1.6 | 1.6 | 0.00 | 0.00 | 0.00 | 69 | 1027.1 |
| 20260508050027 | 5 | 357 | 0.0 | 0.0 | 0.00 | 0.00 | 0.00 | 71 | 1026.8 |
| 20260508045523 | 4 | 356 | 0.0 | 0.0 | 0.00 | 0.00 | 0.00 | 77 | 1026.8 |
| 20260508045021 | 3 | 356 | 0.0 | 0.0 | 0.00 | 0.00 | 0.00 | 80 | 1026.8 |
| 20260508044518 | 3 | 356 | 0.0 | 0.0 | 0.00 | 0.00 | 0.00 | 86 | 1026.7 |
| 20260508044014 | 3 | 356 | 0.0 | 0.0 | 0.00 | 0.00 | 0.00 | 88 | 1026.4 |
| 20260508043511 | 3 | 356 | 0.0 | 0.0 | 0.00 | 0.00 | 0.00 | 88 | 1026.7 |
| 20260508043008 | 3 | 356 | 0.0 | 0.0 | 0.00 | 0.00 | 0.00 | 89 | 1026.8 |
| 20260508042505 | 3 | 356 | 0.0 | 0.0 | 0.00 | 0.00 | 0.00 | 88 | 1027.0 |
| 20260508042002 | 3 | 356 | 0.0 | 0.0 | 0.00 | 0.00 | 0.00 | 87 | 1026.7 |
| 20260508041458 | 3 | 356 | 0.0 | 0.0 | 0.00 | 0.00 | 0.00 | 87 | 1026.8 |
| 20260508040955 | 3 | 356 | 0.0 | 0.0 | 0.00 | 0.00 | 0.00 | 87 | 1026.7 |
| 20260508040452 | 3 | 356 | 0.0 | 0.0 | 0.00 | 0.00 | 0.00 | 88 | 1027.0 |
| 20260508035950 | 3 | 356 | 0.0 | 0.0 | 0.00 | 0.00 | 0.00 | 87 | 1026.8 |
| 20260508035446 | 3 | 356 | 0.0 | 0.0 | 0.00 | 0.00 | 0.00 | 88 | 1027.0 |
| 20260508034943 | 4 | 356 | 0.0 | 0.0 | 0.00 | 0.00 | 0.00 | 85 | 1026.7 |
| 20260508034441 | 4 | 356 | 0.0 | 0.0 | 0.00 | 0.00 | 0.00 | 84 | 1026.7 |
| 20260508033937 | 4 | 356 | 0.0 | 0.0 | 0.00 | 0.00 | 0.00 | 86 | 1026.7 |
| 20260508033436 | 4 | 356 | 0.0 | 0.0 | 0.00 | 0.00 | 0.00 | 82 | 1026.6 |
| 20260508032932 | 4 | 357 | 0.0 | 0.0 | 0.00 | 0.00 | 0.00 | 84 | 1026.7 |
| 20260508032430 | 4 | 355 | 3.2 | 3.2 | 0.00 | 0.00 | 0.00 | 84 | 1026.7 |
| 20260508031926 | 3 | 304 | 1.6 | 1.6 | 0.00 | 0.00 | 0.00 | 87 | 1026.6 |
| 20260508031424 | 3 | 301 | 0.0 | 0.0 | 0.00 | 0.00 | 0.00 | 88 | 1026.3 |
| 20260508030919 | 3 | 301 | 1.6 | 1.6 | 0.00 | 0.00 | 0.00 | 90 | 1026.6 |
| 20260508030417 | 3 | 296 | 1.6 | 1.6 | 0.00 | 0.00 | 0.00 | 90 | 1026.4 |
| 20260508025914 | 3 | 295 | 0.0 | 0.0 | 0.00 | 0.00 | 0.00 | 89 | 1026.3 |
| 20260508025410 | 3 | 295 | 0.0 | 0.0 | 0.00 | 0.00 | 0.00 | 88 | 1026.3 |
| 20260508024907 | 3 | 295 | 0.0 | 0.0 | 0.00 | 0.00 | 0.00 | 88 | 1026.2 |
| 20260508024404 | 4 | 295 | 0.0 | 0.0 | 0.00 | 0.00 | 0.00 | 88 | 1026.2 |
| 20260508023901 | 4 | 295 | 0.0 | 0.0 | 0.00 | 0.00 | 0.00 | 87 | 1026.4 |
| 20260508023357 | 4 | 295 | 0.0 | 1.6 | 0.00 | 0.00 | 0.00 | 88 | 1026.4 |
| 20260508022854 | 4 | 296 | 0.0 | 0.0 | 0.00 | 0.00 | 0.00 | 88 | 1026.3 |
| 20260508022350 | 4 | 295 | 0.0 | 0.0 | 0.00 | 0.00 | 0.00 | 89 | 1026.2 |
| 20260508021847 | 4 | 295 | 0.0 | 0.0 | 0.00 | 0.00 | 0.00 | 88 | 1026.3 |
| 20260508021343 | 4 | 296 | 0.0 | 0.0 | 0.00 | 0.00 | 0.00 | 88 | 1026.4 |
| 20260508020839 | 4 | 296 | 0.0 | 0.0 | 0.00 | 0.00 | 0.00 | 89 | 1026.3 |
| 20260508020337 | 4 | 293 | 0.0 | 0.0 | 0.00 | 0.00 | 0.00 | 90 | 1026.3 |
| 20260508015834 | 3 | 293 | 0.0 | 0.0 | 0.00 | 0.00 | 0.00 | 89 | 1026.2 |
| 20260508015332 | 4 | 293 | 0.0 | 0.0 | 0.00 | 0.00 | 0.00 | 89 | 1026.0 |
| 20260508014828 | 4 | 293 | 0.0 | 0.0 | 0.00 | 0.00 | 0.00 | 88 | 1026.3 |
| 20260508014326 | 4 | 293 | 0.0 | 0.0 | 0.00 | 0.00 | 0.00 | 86 | 1026.0 |
| 20260508013826 | 4 | 293 | 0.0 | 0.0 | 0.00 | 0.00 | 0.00 | 85 | 1026.6 |
| 20260508013323 | 5 | 293 | 0.0 | 0.0 | 0.00 | 0.00 | 0.00 | 84 | 1026.6 |
| 20260508012820 | 5 | 293 | 0.0 | 0.0 | 0.00 | 0.00 | 0.00 | 83 | 1026.6 |
| 20260508012317 | 5 | 294 | 0.0 | 0.0 | 0.00 | 0.00 | 0.00 | 80 | 1026.7 |
| 20260508011815 | 6 | 25 | 0.0 | 0.0 | 0.00 | 0.00 | 0.00 | 75 | 1027.1 |
| 20260508011312 | 6 | 214 | 1.6 | 1.6 | 0.00 | 0.00 | 0.00 | 71 | 1026.8 |
| 20260508010809 | 7 | 287 | 1.6 | 1.6 | 0.00 | 0.00 | 0.00 | 67 | 1026.6 |
| 20260508010307 | 8 | 306 | 0.0 | 0.0 | 0.00 | 0.00 | 0.00 | 57 | 1026.2 |
| 20260508005804 | 8 | 303 | 1.6 | 4.8 | 0.00 | 0.00 | 0.00 | 53 | 1025.9 |
| 20260508005300 | 8 | 218 | 1.6 | 1.6 | 0.00 | 0.00 | 0.00 | 52 | 1026.0 |
| 20260508004756 | 8 | 23 | 3.2 | 3.2 | 0.00 | 0.00 | 0.00 | 53 | 1026.0 |
| 20260508004253 | 8 | 142 | 1.6 | 1.6 | 0.00 | 0.00 | 0.00 | 53 | 1026.0 |
| 20260508003749 | 8 | 145 | 3.2 | 4.8 | 0.00 | 0.00 | 0.00 | 53 | 1026.3 |
| 20260508003247 | 8 | 163 | 1.6 | 1.6 | 0.00 | 0.00 | 0.00 | 54 | 1025.7 |
| 20260508002743 | 8 | 261 | 3.2 | 3.2 | 0.00 | 0.00 | 0.00 | 55 | 1026.0 |
| 20260508002241 | 8 | 352 | 4.8 | 4.8 | 0.00 | 0.00 | 0.00 | 52 | 1026.0 |
| 20260508001736 | 9 | 248 | 4.8 | 4.8 | 0.00 | 0.00 | 0.00 | 50 | 1025.8 |
| 20260508001232 | 10 | 26 | 1.6 | 3.2 | 0.00 | 0.00 | 0.00 | 49 | 1025.5 |
| 20260508000728 | 10 | 357 | 3.2 | 4.8 | 0.00 | 0.00 | 0.00 | 42 | 1025.4 |
| 20260508000227 | 10 | 77 | 1.6 | 1.6 | 0.00 | 0.00 | 0.00 | 42 | 1025.1 |
| 20260507235722 | 11 | 260 | 0.0 | 0.0 | 0.00 | 0.00 | 0.00 | 41 | 1025.0 |
| 20260507235219 | 11 | 305 | 1.6 | 4.8 | 0.00 | 0.00 | 0.00 | 41 | 1024.7 |
| 20260507234716 | 11 | 16 | 4.8 | 4.8 | 0.00 | 0.00 | 0.00 | 38 | 1024.9 |
| 20260507234213 | 11 | 227 | 1.6 | 1.6 | 0.00 | 0.00 | 0.00 | 40 | 1024.9 |
| 20260507233710 | 11 | 313 | 3.2 | 4.8 | 0.00 | 0.00 | 0.00 | 39 | 1024.9 |
| 20260507233208 | 11 | 287 | 0.0 | 0.0 | 0.00 | 0.00 | 0.00 | 41 | 1025.0 |
| 20260507232704 | 11 | 229 | 1.6 | 1.6 | 0.00 | 0.00 | 0.00 | 40 | 1025.1 |
| 20260507232202 | 11 | 150 | 3.2 | 3.2 | 0.00 | 0.00 | 0.00 | 41 | 1025.1 |
| 20260507231658 | 11 | 303 | 1.6 | 1.6 | 0.00 | 0.00 | 0.00 | 41 | 1025.0 |
| 20260507231155 | 11 | 253 | 1.6 | 1.6 | 0.00 | 0.00 | 0.00 | 42 | 1025.0 |
| 20260507230652 | 11 | 275 | 0.0 | 0.0 | 0.00 | 0.00 | 0.00 | 42 | 1025.0 |
| 20260507230149 | 11 | 144 | 0.0 | 0.0 | 0.00 | 0.00 | 0.00 | 41 | 1025.4 |
| 20260507225648 | 11 | 250 | 0.0 | 1.6 | 0.00 | 0.00 | 0.00 | 43 | 1025.5 |
| 20260507225146 | 11 | 283 | 1.6 | 1.6 | 0.00 | 0.00 | 0.00 | 40 | 1025.1 |
| 20260507224641 | 11 | 332 | 1.6 | 3.2 | 0.00 | 0.00 | 0.00 | 39 | 1025.3 |
| 20260507224138 | 12 | 292 | 1.6 | 3.2 | 0.00 | 0.00 | 0.00 | 37 | 1025.4 |
| 20260507223634 | 13 | 328 | 0.0 | 0.0 | 0.00 | 0.00 | 0.00 | 35 | 1025.1 |
| 20260507223131 | 13 | 12 | 4.8 | 6.4 | 0.00 | 0.00 | 0.00 | 34 | 1025.3 |
| 20260507222628 | 13 | 201 | 1.6 | 3.2 | 0.00 | 0.00 | 0.00 | 36 | 1025.4 |
| 20260507222124 | 13 | 289 | 1.6 | 3.2 | 0.00 | 0.00 | 0.00 | 34 | 1025.4 |
| 20260507221620 | 12 | 246 | 1.6 | 3.2 | 0.00 | 0.00 | 0.00 | 36 | 1025.4 |
| 20260507221117 | 13 | 176 | 1.6 | 1.6 | 0.00 | 0.00 | 0.00 | 33 | 1025.7 |
| 20260507220614 | 13 | 239 | 0.0 | 0.0 | 0.00 | 0.00 | 0.00 | 36 | 1025.4 |
| 20260507220112 | 13 | 160 | 1.6 | 1.6 | 0.00 | 0.00 | 0.00 | 36 | 1025.4 |
| 20260507215608 | 13 | 348 | 3.2 | 3.2 | 0.00 | 0.00 | 0.00 | 36 | 1025.4 |
| 20260507215106 | 13 | 269 | 1.6 | 3.2 | 0.00 | 0.00 | 0.00 | 36 | 1025.7 |
| 20260507214603 | 13 | 86 | 3.2 | 3.2 | 0.00 | 0.00 | 0.00 | 36 | 1025.7 |
| 20260507214059 | 12 | 14 | 1.6 | 3.2 | 0.00 | 0.00 | 0.00 | 37 | 1025.8 |
| 20260507213555 | 12 | 302 | 1.6 | 1.6 | 0.00 | 0.00 | 0.00 | 38 | 1025.9 |
| 20260507213052 | 12 | 222 | 0.0 | 1.6 | 0.00 | 0.00 | 0.00 | 37 | 1026.2 |
| 20260507212548 | 12 | 283 | 1.6 | 3.2 | 0.00 | 0.00 | 0.00 | 37 | 1026.3 |
| 20260507212045 | 12 | 172 | 3.2 | 3.2 | 0.00 | 0.00 | 0.00 | 40 | 1025.9 |
| 20260507211542 | 13 | 352 | 4.8 | 4.8 | 0.00 | 0.00 | 0.00 | 37 | 1026.3 |
| 20260507211038 | 13 | 141 | 4.8 | 9.7 | 0.00 | 0.00 | 0.00 | 37 | 1026.2 |
| 20260507210536 | 12 | 132 | 3.2 | 4.8 | 0.00 | 0.00 | 0.00 | 39 | 1026.2 |
| 20260507210032 | 12 | 170 | 3.2 | 6.4 | 0.00 | 0.00 | 0.00 | 39 | 1026.0 |
| 20260507205529 | 12 | 252 | 1.6 | 3.2 | 0.00 | 0.00 | 0.00 | 38 | 1026.4 |
| 20260507205025 | 12 | 324 | 4.8 | 4.8 | 0.00 | 0.00 | 0.00 | 37 | 1026.8 |
| 20260507204521 | 12 | 187 | 1.6 | 3.2 | 0.00 | 0.00 | 0.00 | 42 | 1026.7 |
| 20260507204019 | 12 | 329 | 1.6 | 1.6 | 0.00 | 0.00 | 0.00 | 39 | 1026.8 |
| 20260507203517 | 12 | 135 | 3.2 | 4.8 | 0.00 | 0.00 | 0.00 | 41 | 1026.6 |
| 20260507203014 | 12 | 237 | 8.0 | 11.3 | 0.00 | 0.00 | 0.00 | 37 | 1026.7 |
| 20260507202509 | 12 | 241 | 0.0 | 1.6 | 0.00 | 0.00 | 0.00 | 40 | 1026.7 |
| 20260507202006 | 12 | 284 | 6.4 | 11.3 | 0.00 | 0.00 | 0.00 | 39 | 1026.8 |
| 20260507201502 | 12 | 335 | 3.2 | 4.8 | 0.00 | 0.00 | 0.00 | 40 | 1026.8 |
| 20260507200958 | 12 | 164 | 1.6 | 3.2 | 0.00 | 0.00 | 0.00 | 40 | 1027.0 |
| 20260507200454 | 12 | 319 | 4.8 | 9.7 | 0.00 | 0.00 | 0.00 | 38 | 1027.2 |
| 20260507195949 | 12 | 158 | 3.2 | 4.8 | 0.00 | 0.00 | 0.00 | 41 | 1026.8 |
| 20260507195448 | 12 | 126 | 9.7 | 11.3 | 0.00 | 0.00 | 0.00 | 40 | 1027.2 |
| 20260507194945 | 11 | 9 | 1.6 | 1.6 | 0.00 | 0.00 | 0.00 | 43 | 1027.4 |
| 20260507194441 | 11 | 222 | 1.6 | 1.6 | 0.00 | 0.00 | 0.00 | 45 | 1027.2 |
| 20260507193937 | 11 | 34 | 3.2 | 3.2 | 0.00 | 0.00 | 0.00 | 42 | 1027.5 |
| 20260507193434 | 11 | 197 | 0.0 | 1.6 | 0.00 | 0.00 | 0.00 | 43 | 1027.4 |
| 20260507192931 | 12 | 2 | 4.8 | 6.4 | 0.00 | 0.00 | 0.00 | 39 | 1027.4 |
| 20260507192427 | 12 | 295 | 3.2 | 3.2 | 0.00 | 0.00 | 0.00 | 41 | 1027.2 |
| 20260507191924 | 12 | 228 | 3.2 | 3.2 | 0.00 | 0.00 | 0.00 | 40 | 1027.7 |
| 20260507191420 | 11 | 206 | 0.0 | 1.6 | 0.00 | 0.00 | 0.00 | 41 | 1027.5 |
| 20260507190917 | 11 | 98 | 1.6 | 1.6 | 0.00 | 0.00 | 0.00 | 43 | 1027.7 |
| 20260507190415 | 11 | 2 | 3.2 | 4.8 | 0.00 | 0.00 | 0.00 | 46 | 1027.5 |
| 20260507185914 | 11 | 309 | 3.2 | 4.8 | 0.00 | 0.00 | 0.00 | 44 | 1027.5 |
| 20260507185410 | 11 | 136 | 0.0 | 1.6 | 0.00 | 0.00 | 0.00 | 45 | 1027.6 |
| 20260507184907 | 11 | 352 | 3.2 | 3.2 | 0.00 | 0.00 | 0.00 | 42 | 1027.7 |
| 20260507184405 | 11 | 309 | 4.8 | 4.8 | 0.00 | 0.00 | 0.00 | 45 | 1027.6 |
| 20260507183902 | 10 | 232 | 1.6 | 1.6 | 0.00 | 0.00 | 0.00 | 52 | 1027.6 |
| 20260507183359 | 9 | 330 | 1.6 | 1.6 | 0.00 | 0.00 | 0.00 | 49 | 1027.7 |
| 20260507182856 | 8 | 276 | 1.6 | 3.2 | 0.00 | 0.00 | 0.00 | 51 | 1027.9 |
| 20260507182351 | 8 | 6 | 3.2 | 4.8 | 0.00 | 0.00 | 0.00 | 47 | 1028.0 |
| 20260507181848 | 8 | 182 | 0.0 | 1.6 | 0.00 | 0.00 | 0.00 | 48 | 1027.9 |
| 20260507181344 | 8 | 41 | 0.0 | 1.6 | 0.00 | 0.00 | 0.00 | 49 | 1027.9 |
| 20260507180841 | 8 | 11 | 3.2 | 4.8 | 0.00 | 0.00 | 0.00 | 51 | 1028.0 |
| 20260507180338 | 7 | 26 | 0.0 | 0.0 | 0.00 | 0.00 | 0.00 | 57 | 1028.0 |
| 20260507175834 | 7 | 12 | 1.6 | 3.2 | 0.00 | 0.00 | 0.00 | 52 | 1028.1 |
| 20260507175331 | 6 | 19 | 1.6 | 1.6 | 0.00 | 0.00 | 0.00 | 56 | 1028.3 |
| 20260507174828 | 7 | 2 | 1.6 | 1.6 | 0.00 | 0.00 | 0.00 | 54 | 1028.1 |
| 20260507174326 | 6 | 283 | 4.8 | 4.8 | 0.00 | 0.00 | 0.00 | 53 | 1028.1 |
| 20260507173823 | 7 | 26 | 1.6 | 1.6 | 0.00 | 0.00 | 0.00 | 53 | 1028.4 |
| 20260507173320 | 7 | 15 | 4.8 | 4.8 | 0.00 | 0.00 | 0.00 | 53 | 1028.3 |
| 20260507172816 | 7 | 337 | 3.2 | 4.8 | 0.00 | 0.00 | 0.00 | 53 | 1028.3 |
| 20260507172313 | 7 | 302 | 0.0 | 1.6 | 0.00 | 0.00 | 0.00 | 57 | 1028.3 |
| 20260507171809 | 7 | 11 | 6.4 | 11.3 | 0.00 | 0.00 | 0.00 | 55 | 1028.4 |
| 20260507171306 | 6 | 7 | 0.0 | 0.0 | 0.00 | 0.00 | 0.00 | 58 | 1028.4 |
| 20260507170803 | 5 | 12 | 0.0 | 0.0 | 0.00 | 0.00 | 0.00 | 62 | 1028.5 |
| 20260507170300 | 5 | 18 | 3.2 | 4.8 | 0.00 | 0.00 | 0.00 | 55 | 1028.5 |
| 20260507165755 | 5 | 11 | 6.4 | 6.4 | 0.00 | 0.00 | 0.00 | 59 | 1028.5 |
| 20260507165252 | 5 | 19 | 4.8 | 6.4 | 0.00 | 0.00 | 0.00 | 60 | 1028.4 |
| 20260507164748 | 4 | 13 | 3.2 | 3.2 | 0.00 | 0.00 | 0.00 | 62 | 1028.7 |
| 20260507164245 | 3 | 18 | 4.8 | 6.4 | 0.00 | 0.00 | 0.00 | 61 | 1028.5 |
| 20260507163742 | 3 | 44 | 3.2 | 3.2 | 0.00 | 0.00 | 0.00 | 59 | 1028.5 |
| 20260507163240 | 3 | 353 | 11.3 | 17.7 | 0.00 | 0.00 | 0.00 | 60 | 1028.7 |
| 20260507162736 | 3 | 75 | 6.4 | 9.7 | 0.00 | 0.00 | 0.00 | 62 | 1028.5 |
| 20260507162232 | 3 | 33 | 11.3 | 12.9 | 0.00 | 0.00 | 0.00 | 61 | 1028.5 |
| 20260507161729 | 3 | 344 | 9.7 | 11.3 | 0.00 | 0.00 | 0.00 | 62 | 1028.5 |
| 20260507161225 | 3 | 29 | 1.6 | 1.6 | 0.00 | 0.00 | 0.00 | 60 | 1028.5 |
| 20260507160721 | 3 | 25 | 8.0 | 9.7 | 0.00 | 0.00 | 0.00 | 58 | 1028.8 |
| 20260507160218 | 3 | 15 | 3.2 | 3.2 | 0.00 | 0.00 | 0.00 | 63 | 1028.8 |
| 20260507155714 | 3 | 19 | 1.6 | 1.6 | 0.00 | 0.00 | 0.00 | 60 | 1028.9 |
| 20260507155210 | 2 | 14 | 3.2 | 4.8 | 0.00 | 0.00 | 0.00 | 61 | 1028.9 |
| 20260507154706 | 2 | 64 | 0.0 | 0.0 | 0.00 | 0.00 | 0.00 | 67 | 1028.9 |
| 20260507154205 | 3 | 61 | 0.0 | 0.0 | 0.00 | 0.00 | 0.00 | 61 | 1028.9 |
| 20260507153701 | 2 | 61 | 0.0 | 0.0 | 0.00 | 0.00 | 0.00 | 69 | 1029.0 |
| 20260507153157 | 2 | 61 | 0.0 | 0.0 | 0.00 | 0.00 | 0.00 | 67 | 1029.3 |
| 20260507152654 | 2 | 61 | 0.0 | 0.0 | 0.00 | 0.00 | 0.00 | 65 | 1029.3 |
| 20260507152150 | 2 | 61 | 0.0 | 0.0 | 0.00 | 0.00 | 0.00 | 69 | 1029.6 |
| 20260507151646 | 2 | 57 | 1.6 | 3.2 | 0.00 | 0.00 | 0.00 | 69 | 1029.6 |
| 20260507151143 | 1 | 53 | 0.0 | 1.6 | 0.00 | 0.00 | 0.00 | 68 | 1029.6 |
| 20260507150640 | 1 | 53 | 0.0 | 0.0 | 0.00 | 0.00 | 0.00 | 70 | 1029.8 |
| 20260507150136 | 0 | 53 | 0.0 | 0.0 | 0.00 | 0.00 | 0.00 | 71 | 1029.8 |
| 20260507145632 | 0 | 53 | 0.0 | 0.0 | 0.00 | 0.00 | 0.00 | 68 | 1029.8 |
| 20260507145130 | 0 | 50 | 0.0 | 0.0 | 0.00 | 0.00 | 0.00 | 70 | 1030.0 |
| 20260507144626 | 0 | 34 | 0.0 | 0.0 | 0.00 | 0.00 | 0.00 | 69 | 1030.2 |
| 20260507144124 | 0 | 35 | 0.0 | 0.0 | 0.00 | 0.00 | 0.00 | 69 | 1030.2 |
| 20260507143620 | 0 | 35 | 1.6 | 1.6 | 0.00 | 0.00 | 0.00 | 74 | 1030.2 |
| 20260507143118 | 0 | 31 | 1.6 | 1.6 | 0.00 | 0.00 | 0.00 | 72 | 1030.1 |
| 20260507142613 | 0 | 19 | 0.0 | 0.0 | 0.00 | 0.00 | 0.00 | 74 | 1030.0 |
| 20260507142110 | 0 | 18 | 0.0 | 0.0 | 0.00 | 0.00 | 0.00 | 69 | 1030.2 |
| 20260507141606 | 0 | 3 | 0.0 | 0.0 | 0.00 | 0.00 | 0.00 | 64 | 1030.1 |
| 20260507141103 | 0 | 1 | 0.0 | 0.0 | 0.00 | 0.00 | 0.00 | 65 | 1030.2 |
| 20260507140559 | 0 | 1 | 0.0 | 0.0 | 0.00 | 0.00 | 0.00 | 71 | 1030.4 |
| 20260507140057 | -1 | 1 | 0.0 | 0.0 | 0.00 | 0.00 | 0.00 | 74 | 1030.2 |
| 20260507135554 | -2 | 0 | 0.0 | 0.0 | 0.00 | 0.00 | 0.00 | 74 | 1030.4 |
| 20260507135051 | -1 | 1 | 0.0 | 0.0 | 0.00 | 0.00 | 0.00 | 75 | 1030.2 |
| 20260507134548 | -1 | 0 | 0.0 | 0.0 | 0.00 | 0.00 | 0.00 | 70 | 1030.1 |
| 20260507134043 | -2 | 0 | 0.0 | 0.0 | 0.00 | 0.00 | 0.00 | 75 | 1030.4 |
| 20260507133540 | -2 | 0 | 0.0 | 0.0 | 0.00 | 0.00 | 0.00 | 73 | 1030.4 |
| 20260507133038 | -2 | 359 | 0.0 | 0.0 | 0.00 | 0.00 | 0.00 | 76 | 1030.5 |
| 20260507132534 | -2 | 358 | 0.0 | 0.0 | 0.00 | 0.00 | 0.00 | 77 | 1030.4 |
| 20260507132031 | -3 | 358 | 0.0 | 0.0 | 0.00 | 0.00 | 0.00 | 78 | 1030.5 |
| 20260507131527 | -4 | 359 | 0.0 | 0.0 | 0.00 | 0.00 | 0.00 | 83 | 1030.7 |
| 20260507131025 | -4 | 359 | 0.0 | 0.0 | 0.00 | 0.00 | 0.00 | 84 | 1030.4 |
| 20260507130522 | -5 | 359 | 0.0 | 0.0 | 0.00 | 0.00 | 0.00 | 88 | 1030.6 |
| 20260507130020 | -5 | 0 | 0.0 | 0.0 | 0.00 | 0.00 | 0.00 | 87 | 1030.6 |
| 20260507125518 | -5 | 0 | 0.0 | 0.0 | 0.00 | 0.00 | 0.00 | 88 | 1030.6 |
| 20260507125015 | -5 | 0 | 0.0 | 0.0 | 0.00 | 0.00 | 0.00 | 89 | 1030.2 |
| 20260507124512 | -6 | 0 | 0.0 | 0.0 | 0.00 | 0.00 | 0.00 | 90 | 1030.2 |
| 20260507124009 | -6 | 0 | 0.0 | 0.0 | 0.00 | 0.00 | 0.00 | 90 | 1030.4 |
| 20260507123507 | -6 | 0 | 0.0 | 0.0 | 0.00 | 0.00 | 0.00 | 90 | 1030.4 |
| 20260507123003 | -6 | 0 | 0.0 | 0.0 | 0.00 | 0.00 | 0.00 | 90 | 1030.2 |
| 20260507122459 | -6 | 0 | 0.0 | 0.0 | 0.00 | 0.00 | 0.00 | 90 | 1030.1 |
| 20260507121955 | -7 | 0 | 0.0 | 0.0 | 0.00 | 0.00 | 0.00 | 91 | 1030.4 |
| 20260507121451 | -7 | 0 | 0.0 | 0.0 | 0.00 | 0.00 | 0.00 | 91 | 1030.0 |
| 20260507120947 | -7 | 0 | 0.0 | 0.0 | 0.00 | 0.00 | 0.00 | 91 | 1030.2 |
| 20260507120443 | -7 | 0 | 0.0 | 0.0 | 0.00 | 0.00 | 0.00 | 91 | 1030.4 |
| 20260507115940 | -7 | 0 | 0.0 | 0.0 | 0.00 | 0.00 | 0.00 | 91 | 1030.2 |
| 20260507115436 | -7 | 0 | 0.0 | 0.0 | 0.00 | 0.00 | 0.00 | 91 | 1030.2 |
| 20260507114932 | -7 | 0 | 0.0 | 0.0 | 0.00 | 0.00 | 0.00 | 91 | 1030.0 |
| 20260507114429 | -7 | 0 | 0.0 | 0.0 | 0.00 | 0.00 | 0.00 | 91 | 1030.2 |
| 20260507113926 | -7 | 0 | 0.0 | 0.0 | 0.00 | 0.00 | 0.00 | 91 | 1030.1 |
| 20260507113423 | -7 | 0 | 0.0 | 0.0 | 0.00 | 0.00 | 0.00 | 91 | 1030.4 |
| 20260507112920 | -7 | 0 | 0.0 | 0.0 | 0.00 | 0.00 | 0.00 | 91 | 1030.2 |
| 20260507112418 | -6 | 0 | 0.0 | 0.0 | 0.00 | 0.00 | 0.00 | 91 | 1030.1 |
| 20260507111915 | -7 | 0 | 0.0 | 0.0 | 0.00 | 0.00 | 0.00 | 91 | 1030.1 |
| 20260507111412 | -6 | 0 | 0.0 | 0.0 | 0.00 | 0.00 | 0.00 | 90 | 1029.8 |
| 20260507110908 | -6 | 0 | 0.0 | 0.0 | 0.00 | 0.00 | 0.00 | 89 | 1029.7 |
| 20260507110404 | -6 | 0 | 0.0 | 0.0 | 0.00 | 0.00 | 0.00 | 88 | 1029.8 |
| 20260507105901 | -6 | 0 | 0.0 | 0.0 | 0.00 | 0.00 | 0.00 | 87 | 1029.8 |
| 20260507105358 | -6 | 0 | 0.0 | 0.0 | 0.00 | 0.00 | 0.00 | 87 | 1030.0 |
| 20260507104855 | -6 | 0 | 0.0 | 0.0 | 0.00 | 0.00 | 0.00 | 87 | 1029.8 |
| 20260507104351 | -6 | 0 | 0.0 | 0.0 | 0.00 | 0.00 | 0.00 | 87 | 1029.8 |
| 20260507103847 | -6 | 0 | 0.0 | 0.0 | 0.00 | 0.00 | 0.00 | 87 | 1030.0 |
| 20260507103344 | -6 | 0 | 0.0 | 0.0 | 0.00 | 0.00 | 0.00 | 87 | 1030.0 |
| 20260507102840 | -6 | 0 | 0.0 | 0.0 | 0.00 | 0.00 | 0.00 | 87 | 1029.8 |
| 20260507102337 | -6 | 0 | 0.0 | 0.0 | 0.00 | 0.00 | 0.00 | 87 | 1029.8 |
| 20260507101834 | -6 | 0 | 0.0 | 0.0 | 0.00 | 0.00 | 0.00 | 86 | 1030.1 |
| 20260507101333 | -6 | 0 | 0.0 | 0.0 | 0.00 | 0.00 | 0.00 | 87 | 1029.7 |
| 20260507100831 | -6 | 0 | 0.0 | 0.0 | 0.00 | 0.00 | 0.00 | 89 | 1030.0 |
| 20260507100329 | -6 | 0 | 0.0 | 0.0 | 0.00 | 0.00 | 0.00 | 88 | 1030.1 |
| 20260507095827 | -6 | 0 | 0.0 | 0.0 | 0.00 | 0.00 | 0.00 | 86 | 1030.1 |
| 20260507095323 | -6 | 0 | 0.0 | 0.0 | 0.00 | 0.00 | 0.00 | 86 | 1030.0 |
| 20260507094820 | -5 | 0 | 0.0 | 0.0 | 0.00 | 0.00 | 0.00 | 85 | 1029.8 |
| 20260507094317 | -5 | 0 | 0.0 | 0.0 | 0.00 | 0.00 | 0.00 | 85 | 1030.0 |
| 20260507093814 | -5 | 0 | 0.0 | 0.0 | 0.00 | 0.00 | 0.00 | 84 | 1029.7 |
| 20260507093312 | -5 | 0 | 0.0 | 0.0 | 0.00 | 0.00 | 0.00 | 84 | 1029.8 |
| 20260507092810 | -5 | 0 | 0.0 | 0.0 | 0.00 | 0.00 | 0.00 | 84 | 1029.8 |
| 20260507092307 | -5 | 0 | 0.0 | 0.0 | 0.00 | 0.00 | 0.00 | 84 | 1030.0 |
| 20260507091803 | -5 | 0 | 0.0 | 0.0 | 0.00 | 0.00 | 0.00 | 86 | 1030.0 |
| 20260507091259 | -6 | 0 | 0.0 | 0.0 | 0.00 | 0.00 | 0.00 | 86 | 1030.0 |
| 20260507090759 | -6 | 0 | 0.0 | 0.0 | 0.00 | 0.00 | 0.00 | 87 | 1030.0 |
| 20260507090256 | -5 | 0 | 0.0 | 0.0 | 0.00 | 0.00 | 0.00 | 86 | 1030.0 |
| 20260507085753 | -5 | 0 | 0.0 | 0.0 | 0.00 | 0.00 | 0.00 | 86 | 1030.1 |
| 20260507085250 | -6 | 0 | 0.0 | 0.0 | 0.00 | 0.00 | 0.00 | 87 | 1030.2 |
| 20260507084747 | -6 | 0 | 0.0 | 0.0 | 0.00 | 0.00 | 0.00 | 86 | 1030.2 |
| 20260507084243 | -6 | 0 | 0.0 | 0.0 | 0.00 | 0.00 | 0.00 | 87 | 1030.1 |
| 20260507083741 | -5 | 0 | 0.0 | 0.0 | 0.00 | 0.00 | 0.00 | 87 | 1030.2 |
| 20260507083238 | -5 | 0 | 0.0 | 0.0 | 0.00 | 0.00 | 0.00 | 86 | 1030.2 |
| 20260507082734 | -5 | 0 | 0.0 | 0.0 | 0.00 | 0.00 | 0.00 | 85 | 1030.0 |
| 20260507082229 | -5 | 0 | 0.0 | 0.0 | 0.00 | 0.00 | 0.00 | 83 | 1030.0 |
| 20260507081727 | -5 | 0 | 0.0 | 0.0 | 0.00 | 0.00 | 0.00 | 84 | 1030.1 |
| 20260507081223 | -5 | 0 | 0.0 | 0.0 | 0.00 | 0.00 | 0.00 | 85 | 1030.2 |
| 20260507080719 | -5 | 0 | 0.0 | 0.0 | 0.00 | 0.00 | 0.00 | 86 | 1030.2 |
| 20260507080215 | -5 | 0 | 0.0 | 0.0 | 0.00 | 0.00 | 0.00 | 86 | 1030.1 |
| 20260507075711 | -5 | 0 | 0.0 | 0.0 | 0.00 | 0.00 | 0.00 | 85 | 1030.1 |